owner,sensor,date,latitude,longitude,vertical_datum,sea_water_practical_salinity,qcFlag 
ENP,ioos.station.NOAA.NDBC:LBSF1:1,2016-06-01T00:00:00Z,25.2140,-80.4320,1.5,27.82,1111122 
ENP,ioos.station.NOAA.NDBC:LBSF1:1,2016-06-01T03:00:00Z,25.2140,-80.4320,1.5,27.81,1111122 
ENP,ioos.station.NOAA.NDBC:LBSF1:1,2016-06-01T06:00:00Z,25.2140,-80.4320,1.5,27.8,1111122 
ENP,ioos.station.NOAA.NDBC:LBSF1:1,2016-06-01T07:00:00Z,25.2140,-80.4320,1.5,27.79,1111122 
ENP,ioos.station.NOAA.NDBC:LBSF1:1,2016-06-01T08:00:00Z,25.2140,-80.4320,1.5,27.83,1111122 
ENP,ioos.station.NOAA.NDBC:LBSF1:1,2016-06-01T09:00:00Z,25.2140,-80.4320,1.5,27.79,1111122 
ENP,ioos.station.NOAA.NDBC:LBSF1:1,2016-06-01T10:00:00Z,25.2140,-80.4320,1.5,27.79,1111122 
ENP,ioos.station.NOAA.NDBC:LBSF1:1,2016-06-01T11:00:00Z,25.2140,-80.4320,1.5,27.8,1111122 
ENP,ioos.station.NOAA.NDBC:LBSF1:1,2016-06-01T12:00:00Z,25.2140,-80.4320,1.5,27.79,1111122 
ENP,ioos.station.NOAA.NDBC:LBSF1:1,2016-06-01T17:00:00Z,25.2140,-80.4320,1.5,27.79,1111122 
ENP,ioos.station.NOAA.NDBC:LBSF1:1,2016-06-01T18:00:00Z,25.2140,-80.4320,1.5,27.79,1111122 
ENP,ioos.station.NOAA.NDBC:LBSF1:1,2016-06-01T20:00:00Z,25.2140,-80.4320,1.5,27.83,1111122 
ENP,ioos.station.NOAA.NDBC:LBSF1:1,2016-06-01T21:00:00Z,25.2140,-80.4320,1.5,27.84,1111122 
ENP,ioos.station.NOAA.NDBC:LBSF1:1,2016-06-01T22:00:00Z,25.2140,-80.4320,1.5,27.84,1111122 
ENP,ioos.station.NOAA.NDBC:LBSF1:1,2016-06-01T23:00:00Z,25.2140,-80.4320,1.5,27.83,1111122 
ENP,ioos.station.NOAA.NDBC:LBSF1:1,2016-06-02T00:00:00Z,25.2140,-80.4320,1.5,27.82,1111122 
ENP,ioos.station.NOAA.NDBC:LBSF1:1,2016-06-02T03:00:00Z,25.2140,-80.4320,1.5,27.83,1111122 
ENP,ioos.station.NOAA.NDBC:LBSF1:1,2016-06-02T06:00:00Z,25.2140,-80.4320,1.5,27.82,1111122 
ENP,ioos.station.NOAA.NDBC:LBSF1:1,2016-06-02T07:00:00Z,25.2140,-80.4320,1.5,27.84,1111122 
ENP,ioos.station.NOAA.NDBC:LBSF1:1,2016-06-02T08:00:00Z,25.2140,-80.4320,1.5,27.82,1111122 
ENP,ioos.station.NOAA.NDBC:LBSF1:1,2016-06-02T10:00:00Z,25.2140,-80.4320,1.5,27.81,1111122 
ENP,ioos.station.NOAA.NDBC:LBSF1:1,2016-06-02T11:00:00Z,25.2140,-80.4320,1.5,27.8,1111122 
ENP,ioos.station.NOAA.NDBC:LBSF1:1,2016-06-02T12:00:00Z,25.2140,-80.4320,1.5,27.81,1111122 
ENP,ioos.station.NOAA.NDBC:LBSF1:1,2016-06-02T19:00:00Z,25.2140,-80.4320,1.5,27.63,1111122 
ENP,ioos.station.NOAA.NDBC:LBSF1:1,2016-06-02T20:00:00Z,25.2140,-80.4320,1.5,27.6,1111122 
ENP,ioos.station.NOAA.NDBC:LBSF1:1,2016-06-02T21:00:00Z,25.2140,-80.4320,1.5,27.59,1111122 
ENP,ioos.station.NOAA.NDBC:LBSF1:1,2016-06-02T22:00:00Z,25.2140,-80.4320,1.5,27.59,1111122 
ENP,ioos.station.NOAA.NDBC:LBSF1:1,2016-06-02T23:00:00Z,25.2140,-80.4320,1.5,27.59,1111122 
ENP,ioos.station.NOAA.NDBC:LBSF1:1,2016-06-03T00:00:00Z,25.2140,-80.4320,1.5,27.58,1111122 
ENP,ioos.station.NOAA.NDBC:LBSF1:1,2016-06-03T03:00:00Z,25.2140,-80.4320,1.5,27.45,1111122 
ENP,ioos.station.NOAA.NDBC:LBSF1:1,2016-06-03T06:00:00Z,25.2140,-80.4320,1.5,27.42,1111122 
ENP,ioos.station.NOAA.NDBC:LBSF1:1,2016-06-03T07:00:00Z,25.2140,-80.4320,1.5,27.39,1111122 
ENP,ioos.station.NOAA.NDBC:LBSF1:1,2016-06-03T08:00:00Z,25.2140,-80.4320,1.5,27.39,1111122 
ENP,ioos.station.NOAA.NDBC:LBSF1:1,2016-06-03T09:00:00Z,25.2140,-80.4320,1.5,27.39,1111122 
ENP,ioos.station.NOAA.NDBC:LBSF1:1,2016-06-03T10:00:00Z,25.2140,-80.4320,1.5,27.39,1111122 
ENP,ioos.station.NOAA.NDBC:LBSF1:1,2016-06-03T11:00:00Z,25.2140,-80.4320,1.5,27.37,1111122 
ENP,ioos.station.NOAA.NDBC:LBSF1:1,2016-06-03T22:00:00Z,25.2140,-80.4320,1.5,27.27,1111122 
ENP,ioos.station.NOAA.NDBC:LBSF1:1,2016-06-03T23:00:00Z,25.2140,-80.4320,1.5,27.27,1111122 
ENP,ioos.station.NOAA.NDBC:LBSF1:1,2016-06-04T00:00:00Z,25.2140,-80.4320,1.5,27.28,1111122 
ENP,ioos.station.NOAA.NDBC:LBSF1:1,2016-06-04T03:00:00Z,25.2140,-80.4320,1.5,27.29,1111122 
ENP,ioos.station.NOAA.NDBC:LBSF1:1,2016-06-04T06:00:00Z,25.2140,-80.4320,1.5,27.25,1111122 
ENP,ioos.station.NOAA.NDBC:LBSF1:1,2016-06-04T07:00:00Z,25.2140,-80.4320,1.5,27.25,1111122 
ENP,ioos.station.NOAA.NDBC:LBSF1:1,2016-06-04T08:00:00Z,25.2140,-80.4320,1.5,27.24,1111122 
ENP,ioos.station.NOAA.NDBC:LBSF1:1,2016-06-04T09:00:00Z,25.2140,-80.4320,1.5,27.16,1111122 
ENP,ioos.station.NOAA.NDBC:LBSF1:1,2016-06-04T10:00:00Z,25.2140,-80.4320,1.5,26.97,1111122 
ENP,ioos.station.NOAA.NDBC:LBSF1:1,2016-06-04T11:00:00Z,25.2140,-80.4320,1.5,26.91,1111122 
ENP,ioos.station.NOAA.NDBC:LBSF1:1,2016-06-04T12:00:00Z,25.2140,-80.4320,1.5,26.87,1111122 
ENP,ioos.station.NOAA.NDBC:LBSF1:1,2016-06-04T21:00:00Z,25.2140,-80.4320,1.5,27.17,1111122 
ENP,ioos.station.NOAA.NDBC:LBSF1:1,2016-06-04T22:00:00Z,25.2140,-80.4320,1.5,27.17,1111122 
ENP,ioos.station.NOAA.NDBC:LBSF1:1,2016-06-04T23:00:00Z,25.2140,-80.4320,1.5,27.17,1111122 
ENP,ioos.station.NOAA.NDBC:LBSF1:1,2016-06-05T00:00:00Z,25.2140,-80.4320,1.5,27.17,1111122 
ENP,ioos.station.NOAA.NDBC:LBSF1:1,2016-06-05T03:00:00Z,25.2140,-80.4320,1.5,27.2,1111122 
ENP,ioos.station.NOAA.NDBC:LBSF1:1,2016-06-05T06:00:00Z,25.2140,-80.4320,1.5,27.17,1111122 
ENP,ioos.station.NOAA.NDBC:LBSF1:1,2016-06-05T07:00:00Z,25.2140,-80.4320,1.5,27.17,1111122 
ENP,ioos.station.NOAA.NDBC:LBSF1:1,2016-06-05T08:00:00Z,25.2140,-80.4320,1.5,27.08,1111122 
ENP,ioos.station.NOAA.NDBC:LBSF1:1,2016-06-05T10:00:00Z,25.2140,-80.4320,1.5,26.82,1111122 
ENP,ioos.station.NOAA.NDBC:LBSF1:1,2016-06-05T11:00:00Z,25.2140,-80.4320,1.5,26.68,1111122 
ENP,ioos.station.NOAA.NDBC:LBSF1:1,2016-06-05T12:00:00Z,25.2140,-80.4320,1.5,26.6,1111122 
ENP,ioos.station.NOAA.NDBC:LBSF1:1,2016-06-05T13:00:00Z,25.2140,-80.4320,1.5,26.59,1111122 
ENP,ioos.station.NOAA.NDBC:LBSF1:1,2016-06-05T17:00:00Z,25.2140,-80.4320,1.5,26.59,1111122 
ENP,ioos.station.NOAA.NDBC:LBSF1:1,2016-06-05T18:00:00Z,25.2140,-80.4320,1.5,26.6,1111122 
ENP,ioos.station.NOAA.NDBC:LBSF1:1,2016-06-05T19:00:00Z,25.2140,-80.4320,1.5,26.61,1111122 
ENP,ioos.station.NOAA.NDBC:LBSF1:1,2016-06-05T20:00:00Z,25.2140,-80.4320,1.5,26.61,1111122 
ENP,ioos.station.NOAA.NDBC:LBSF1:1,2016-06-05T21:00:00Z,25.2140,-80.4320,1.5,26.61,1111122 
ENP,ioos.station.NOAA.NDBC:LBSF1:1,2016-06-05T22:00:00Z,25.2140,-80.4320,1.5,26.61,1111122 
ENP,ioos.station.NOAA.NDBC:LBSF1:1,2016-06-05T23:00:00Z,25.2140,-80.4320,1.5,26.61,1111122 
ENP,ioos.station.NOAA.NDBC:LBSF1:1,2016-06-06T00:00:00Z,25.2140,-80.4320,1.5,26.58,1111122 
ENP,ioos.station.NOAA.NDBC:LBSF1:1,2016-06-06T02:00:00Z,25.2140,-80.4320,1.5,26.56,1111122 
ENP,ioos.station.NOAA.NDBC:LBSF1:1,2016-06-06T03:00:00Z,25.2140,-80.4320,1.5,26.44,1111122 
ENP,ioos.station.NOAA.NDBC:LBSF1:1,2016-06-06T05:00:00Z,25.2140,-80.4320,1.5,26.17,1111122 
ENP,ioos.station.NOAA.NDBC:LBSF1:1,2016-06-06T06:00:00Z,25.2140,-80.4320,1.5,26.06,1111122 
ENP,ioos.station.NOAA.NDBC:LBSF1:1,2016-06-06T07:00:00Z,25.2140,-80.4320,1.5,26.03,1111122 
ENP,ioos.station.NOAA.NDBC:LBSF1:1,2016-06-06T08:00:00Z,25.2140,-80.4320,1.5,26.05,1111122 
ENP,ioos.station.NOAA.NDBC:LBSF1:1,2016-06-06T10:00:00Z,25.2140,-80.4320,1.5,26.1,1111122 
ENP,ioos.station.NOAA.NDBC:LBSF1:1,2016-06-06T11:00:00Z,25.2140,-80.4320,1.5,26.09,1111122 
ENP,ioos.station.NOAA.NDBC:LBSF1:1,2016-06-06T12:00:00Z,25.2140,-80.4320,1.5,26.06,1111122 
ENP,ioos.station.NOAA.NDBC:LBSF1:1,2016-06-06T13:00:00Z,25.2140,-80.4320,1.5,26.02,1111122 
ENP,ioos.station.NOAA.NDBC:LBSF1:1,2016-06-06T14:00:00Z,25.2140,-80.4320,1.5,25.93,1111122 
ENP,ioos.station.NOAA.NDBC:LBSF1:1,2016-06-06T15:00:00Z,25.2140,-80.4320,1.5,25.89,1111122 
ENP,ioos.station.NOAA.NDBC:LBSF1:1,2016-06-06T16:00:00Z,25.2140,-80.4320,1.5,25.88,1111122 
ENP,ioos.station.NOAA.NDBC:LBSF1:1,2016-06-06T17:00:00Z,25.2140,-80.4320,1.5,25.91,1111122 
ENP,ioos.station.NOAA.NDBC:LBSF1:1,2016-06-06T18:00:00Z,25.2140,-80.4320,1.5,25.96,1111122 
ENP,ioos.station.NOAA.NDBC:LBSF1:1,2016-06-06T19:00:00Z,25.2140,-80.4320,1.5,26.0,1111122 
ENP,ioos.station.NOAA.NDBC:LBSF1:1,2016-06-06T21:00:00Z,25.2140,-80.4320,1.5,25.88,1111122 
ENP,ioos.station.NOAA.NDBC:LBSF1:1,2016-06-06T22:00:00Z,25.2140,-80.4320,1.5,25.92,1111122 
ENP,ioos.station.NOAA.NDBC:LBSF1:1,2016-06-06T23:00:00Z,25.2140,-80.4320,1.5,25.95,1111122 
ENP,ioos.station.NOAA.NDBC:LBSF1:1,2016-06-07T00:00:00Z,25.2140,-80.4320,1.5,25.99,1111122 
ENP,ioos.station.NOAA.NDBC:LBSF1:1,2016-06-07T03:00:00Z,25.2140,-80.4320,1.5,25.96,1111122 
ENP,ioos.station.NOAA.NDBC:LBSF1:1,2016-06-07T06:00:00Z,25.2140,-80.4320,1.5,26.01,1111122 
ENP,ioos.station.NOAA.NDBC:LBSF1:1,2016-06-07T07:00:00Z,25.2140,-80.4320,1.5,25.97,1111122 
ENP,ioos.station.NOAA.NDBC:LBSF1:1,2016-06-07T08:00:00Z,25.2140,-80.4320,1.5,26.0,1111122 
ENP,ioos.station.NOAA.NDBC:LBSF1:1,2016-06-07T10:00:00Z,25.2140,-80.4320,1.5,26.04,1111122 
ENP,ioos.station.NOAA.NDBC:LBSF1:1,2016-06-07T11:00:00Z,25.2140,-80.4320,1.5,26.08,1111122 
ENP,ioos.station.NOAA.NDBC:LBSF1:1,2016-06-07T12:00:00Z,25.2140,-80.4320,1.5,26.09,1111122 
ENP,ioos.station.NOAA.NDBC:LBSF1:1,2016-06-07T13:00:00Z,25.2140,-80.4320,1.5,26.09,1111122 
ENP,ioos.station.NOAA.NDBC:LBSF1:1,2016-06-07T14:00:00Z,25.2140,-80.4320,1.5,26.12,1111122 
ENP,ioos.station.NOAA.NDBC:LBSF1:1,2016-06-07T15:00:00Z,25.2140,-80.4320,1.5,26.14,1111122 
ENP,ioos.station.NOAA.NDBC:LBSF1:1,2016-06-07T16:00:00Z,25.2140,-80.4320,1.5,26.22,1111122 
ENP,ioos.station.NOAA.NDBC:LBSF1:1,2016-06-07T17:00:00Z,25.2140,-80.4320,1.5,26.36,1111122 
ENP,ioos.station.NOAA.NDBC:LBSF1:1,2016-06-07T18:00:00Z,25.2140,-80.4320,1.5,26.43,1111122 
ENP,ioos.station.NOAA.NDBC:LBSF1:1,2016-06-07T19:00:00Z,25.2140,-80.4320,1.5,26.38,1111122 
ENP,ioos.station.NOAA.NDBC:LBSF1:1,2016-06-07T20:00:00Z,25.2140,-80.4320,1.5,26.35,1111122 
ENP,ioos.station.NOAA.NDBC:LBSF1:1,2016-06-07T21:00:00Z,25.2140,-80.4320,1.5,26.34,1111122 
ENP,ioos.station.NOAA.NDBC:LBSF1:1,2016-06-07T22:00:00Z,25.2140,-80.4320,1.5,26.37,1111122 
ENP,ioos.station.NOAA.NDBC:LBSF1:1,2016-06-07T23:00:00Z,25.2140,-80.4320,1.5,26.36,1111122 
ENP,ioos.station.NOAA.NDBC:LBSF1:1,2016-06-08T00:00:00Z,25.2140,-80.4320,1.5,26.38,1111122 
ENP,ioos.station.NOAA.NDBC:LBSF1:1,2016-06-08T03:00:00Z,25.2140,-80.4320,1.5,26.26,1111122 
ENP,ioos.station.NOAA.NDBC:LBSF1:1,2016-06-08T06:00:00Z,25.2140,-80.4320,1.5,26.3,1111122 
ENP,ioos.station.NOAA.NDBC:LBSF1:1,2016-06-08T07:00:00Z,25.2140,-80.4320,1.5,26.35,1111122 
ENP,ioos.station.NOAA.NDBC:LBSF1:1,2016-06-08T08:00:00Z,25.2140,-80.4320,1.5,26.36,1111122 
ENP,ioos.station.NOAA.NDBC:LBSF1:1,2016-06-08T10:00:00Z,25.2140,-80.4320,1.5,26.38,1111122 
ENP,ioos.station.NOAA.NDBC:LBSF1:1,2016-06-08T11:00:00Z,25.2140,-80.4320,1.5,26.38,1111122 
ENP,ioos.station.NOAA.NDBC:LBSF1:1,2016-06-08T13:00:00Z,25.2140,-80.4320,1.5,26.41,1111122 
ENP,ioos.station.NOAA.NDBC:LBSF1:1,2016-06-08T14:00:00Z,25.2140,-80.4320,1.5,26.42,1111122 
ENP,ioos.station.NOAA.NDBC:LBSF1:1,2016-06-08T15:00:00Z,25.2140,-80.4320,1.5,26.43,1111122 
ENP,ioos.station.NOAA.NDBC:LBSF1:1,2016-06-08T16:00:00Z,25.2140,-80.4320,1.5,26.44,1111122 
ENP,ioos.station.NOAA.NDBC:LBSF1:1,2016-06-08T17:00:00Z,25.2140,-80.4320,1.5,26.46,1111122 
ENP,ioos.station.NOAA.NDBC:LBSF1:1,2016-06-08T18:00:00Z,25.2140,-80.4320,1.5,26.47,1111122 
ENP,ioos.station.NOAA.NDBC:LBSF1:1,2016-06-08T19:00:00Z,25.2140,-80.4320,1.5,26.47,1111122 
ENP,ioos.station.NOAA.NDBC:LBSF1:1,2016-06-08T20:00:00Z,25.2140,-80.4320,1.5,26.46,1111122 
ENP,ioos.station.NOAA.NDBC:LBSF1:1,2016-06-08T21:00:00Z,25.2140,-80.4320,1.5,26.5,1111122 
ENP,ioos.station.NOAA.NDBC:LBSF1:1,2016-06-08T22:00:00Z,25.2140,-80.4320,1.5,26.5,1111122 
ENP,ioos.station.NOAA.NDBC:LBSF1:1,2016-06-08T23:00:00Z,25.2140,-80.4320,1.5,26.48,1111122 
ENP,ioos.station.NOAA.NDBC:LBSF1:1,2016-06-09T00:00:00Z,25.2140,-80.4320,1.5,26.43,1111122 
ENP,ioos.station.NOAA.NDBC:LBSF1:1,2016-06-09T03:00:00Z,25.2140,-80.4320,1.5,26.43,1111122 
ENP,ioos.station.NOAA.NDBC:LBSF1:1,2016-06-09T06:00:00Z,25.2140,-80.4320,1.5,26.35,1111122 
ENP,ioos.station.NOAA.NDBC:LBSF1:1,2016-06-09T07:00:00Z,25.2140,-80.4320,1.5,26.36,1111122 
ENP,ioos.station.NOAA.NDBC:LBSF1:1,2016-06-09T08:00:00Z,25.2140,-80.4320,1.5,26.38,1111122 
ENP,ioos.station.NOAA.NDBC:LBSF1:1,2016-06-09T10:00:00Z,25.2140,-80.4320,1.5,26.41,1111122 
ENP,ioos.station.NOAA.NDBC:LBSF1:1,2016-06-09T11:00:00Z,25.2140,-80.4320,1.5,26.43,1111122 
ENP,ioos.station.NOAA.NDBC:LBSF1:1,2016-06-09T12:00:00Z,25.2140,-80.4320,1.5,26.44,1111122 
ENP,ioos.station.NOAA.NDBC:LBSF1:1,2016-06-09T13:00:00Z,25.2140,-80.4320,1.5,26.46,1111122 
ENP,ioos.station.NOAA.NDBC:LBSF1:1,2016-06-09T14:00:00Z,25.2140,-80.4320,1.5,26.49,1111122 
ENP,ioos.station.NOAA.NDBC:LBSF1:1,2016-06-09T15:00:00Z,25.2140,-80.4320,1.5,26.51,1111122 
ENP,ioos.station.NOAA.NDBC:LBSF1:1,2016-06-09T16:00:00Z,25.2140,-80.4320,1.5,26.52,1111122 
ENP,ioos.station.NOAA.NDBC:LBSF1:1,2016-06-09T17:00:00Z,25.2140,-80.4320,1.5,26.52,1111122 
ENP,ioos.station.NOAA.NDBC:LBSF1:1,2016-06-09T18:00:00Z,25.2140,-80.4320,1.5,26.53,1111122 
ENP,ioos.station.NOAA.NDBC:LBSF1:1,2016-06-09T19:00:00Z,25.2140,-80.4320,1.5,26.49,1111122 
ENP,ioos.station.NOAA.NDBC:LBSF1:1,2016-06-09T20:00:00Z,25.2140,-80.4320,1.5,26.46,1111122 
ENP,ioos.station.NOAA.NDBC:LBSF1:1,2016-06-09T21:00:00Z,25.2140,-80.4320,1.5,26.47,1111122 
ENP,ioos.station.NOAA.NDBC:LBSF1:1,2016-06-09T22:00:00Z,25.2140,-80.4320,1.5,26.49,1111122 
ENP,ioos.station.NOAA.NDBC:LBSF1:1,2016-06-09T23:00:00Z,25.2140,-80.4320,1.5,26.48,1111122 
ENP,ioos.station.NOAA.NDBC:LBSF1:1,2016-06-10T00:00:00Z,25.2140,-80.4320,1.5,26.48,1111122 
ENP,ioos.station.NOAA.NDBC:LBSF1:1,2016-06-10T03:00:00Z,25.2140,-80.4320,1.5,26.5,1111122 
ENP,ioos.station.NOAA.NDBC:LBSF1:1,2016-06-10T06:00:00Z,25.2140,-80.4320,1.5,26.26,1111122 
ENP,ioos.station.NOAA.NDBC:LBSF1:1,2016-06-10T07:00:00Z,25.2140,-80.4320,1.5,26.51,1111122 
ENP,ioos.station.NOAA.NDBC:LBSF1:1,2016-06-10T08:00:00Z,25.2140,-80.4320,1.5,26.74,1111122 
ENP,ioos.station.NOAA.NDBC:LBSF1:1,2016-06-10T09:00:00Z,25.2140,-80.4320,1.5,26.97,1111122 
ENP,ioos.station.NOAA.NDBC:LBSF1:1,2016-06-10T10:00:00Z,25.2140,-80.4320,1.5,27.02,1111122 
ENP,ioos.station.NOAA.NDBC:LBSF1:1,2016-06-10T11:00:00Z,25.2140,-80.4320,1.5,26.97,1111122 
ENP,ioos.station.NOAA.NDBC:LBSF1:1,2016-06-10T12:00:00Z,25.2140,-80.4320,1.5,26.95,1111122 
ENP,ioos.station.NOAA.NDBC:LBSF1:1,2016-06-10T13:00:00Z,25.2140,-80.4320,1.5,26.92,1111122 
ENP,ioos.station.NOAA.NDBC:LBSF1:1,2016-06-10T14:00:00Z,25.2140,-80.4320,1.5,26.9,1111122 
ENP,ioos.station.NOAA.NDBC:LBSF1:1,2016-06-10T15:00:00Z,25.2140,-80.4320,1.5,26.89,1111122 
ENP,ioos.station.NOAA.NDBC:LBSF1:1,2016-06-10T16:00:00Z,25.2140,-80.4320,1.5,26.89,1111122 
ENP,ioos.station.NOAA.NDBC:LBSF1:1,2016-06-10T17:00:00Z,25.2140,-80.4320,1.5,26.9,1111122 
ENP,ioos.station.NOAA.NDBC:LBSF1:1,2016-06-10T18:00:00Z,25.2140,-80.4320,1.5,26.92,1111122 
ENP,ioos.station.NOAA.NDBC:LBSF1:1,2016-06-10T19:00:00Z,25.2140,-80.4320,1.5,26.92,1111122 
ENP,ioos.station.NOAA.NDBC:LBSF1:1,2016-06-10T20:00:00Z,25.2140,-80.4320,1.5,26.92,1111122 
ENP,ioos.station.NOAA.NDBC:LBSF1:1,2016-06-10T21:00:00Z,25.2140,-80.4320,1.5,26.89,1111122 
ENP,ioos.station.NOAA.NDBC:LBSF1:1,2016-06-10T22:00:00Z,25.2140,-80.4320,1.5,26.84,1111122 
ENP,ioos.station.NOAA.NDBC:LBSF1:1,2016-06-10T23:00:00Z,25.2140,-80.4320,1.5,26.8,1111122 
ENP,ioos.station.NOAA.NDBC:LBSF1:1,2016-06-11T00:00:00Z,25.2140,-80.4320,1.5,26.74,1111122 
ENP,ioos.station.NOAA.NDBC:LBSF1:1,2016-06-11T03:00:00Z,25.2140,-80.4320,1.5,26.75,1111122 
ENP,ioos.station.NOAA.NDBC:LBSF1:1,2016-06-11T06:00:00Z,25.2140,-80.4320,1.5,27.18,1111122 
ENP,ioos.station.NOAA.NDBC:LBSF1:1,2016-06-11T07:00:00Z,25.2140,-80.4320,1.5,27.2,1111122 
ENP,ioos.station.NOAA.NDBC:LBSF1:1,2016-06-11T08:00:00Z,25.2140,-80.4320,1.5,27.0,1111122 
ENP,ioos.station.NOAA.NDBC:LBSF1:1,2016-06-11T10:00:00Z,25.2140,-80.4320,1.5,27.14,1111122 
ENP,ioos.station.NOAA.NDBC:LBSF1:1,2016-06-11T11:00:00Z,25.2140,-80.4320,1.5,27.37,1111122 
ENP,ioos.station.NOAA.NDBC:LBSF1:1,2016-06-11T12:00:00Z,25.2140,-80.4320,1.5,27.37,1111122 
ENP,ioos.station.NOAA.NDBC:LBSF1:1,2016-06-11T17:00:00Z,25.2140,-80.4320,1.5,27.18,1111122 
ENP,ioos.station.NOAA.NDBC:LBSF1:1,2016-06-11T18:00:00Z,25.2140,-80.4320,1.5,27.43,1111122 
ENP,ioos.station.NOAA.NDBC:LBSF1:1,2016-06-11T19:00:00Z,25.2140,-80.4320,1.5,27.41,1111122 
ENP,ioos.station.NOAA.NDBC:LBSF1:1,2016-06-11T20:00:00Z,25.2140,-80.4320,1.5,27.42,1111122 
ENP,ioos.station.NOAA.NDBC:LBSF1:1,2016-06-11T21:00:00Z,25.2140,-80.4320,1.5,27.47,1111122 
ENP,ioos.station.NOAA.NDBC:LBSF1:1,2016-06-11T22:00:00Z,25.2140,-80.4320,1.5,27.43,1111122 
ENP,ioos.station.NOAA.NDBC:LBSF1:1,2016-06-11T23:00:00Z,25.2140,-80.4320,1.5,27.44,1111122 
ENP,ioos.station.NOAA.NDBC:LBSF1:1,2016-06-12T00:00:00Z,25.2140,-80.4320,1.5,27.44,1111122 
ENP,ioos.station.NOAA.NDBC:LBSF1:1,2016-06-12T03:00:00Z,25.2140,-80.4320,1.5,27.23,1111122 
ENP,ioos.station.NOAA.NDBC:LBSF1:1,2016-06-12T06:00:00Z,25.2140,-80.4320,1.5,27.23,1111122 
ENP,ioos.station.NOAA.NDBC:LBSF1:1,2016-06-12T07:00:00Z,25.2140,-80.4320,1.5,27.24,1111122 
ENP,ioos.station.NOAA.NDBC:LBSF1:1,2016-06-12T08:00:00Z,25.2140,-80.4320,1.5,27.29,1111122 
ENP,ioos.station.NOAA.NDBC:LBSF1:1,2016-06-12T10:00:00Z,25.2140,-80.4320,1.5,27.3,1111122 
ENP,ioos.station.NOAA.NDBC:LBSF1:1,2016-06-12T11:00:00Z,25.2140,-80.4320,1.5,27.32,1111122 
ENP,ioos.station.NOAA.NDBC:LBSF1:1,2016-06-12T12:00:00Z,25.2140,-80.4320,1.5,27.32,1111122 
ENP,ioos.station.NOAA.NDBC:LBSF1:1,2016-06-12T13:00:00Z,25.2140,-80.4320,1.5,27.33,1111122 
ENP,ioos.station.NOAA.NDBC:LBSF1:1,2016-06-12T14:00:00Z,25.2140,-80.4320,1.5,27.32,1111122 
ENP,ioos.station.NOAA.NDBC:LBSF1:1,2016-06-12T17:00:00Z,25.2140,-80.4320,1.5,27.34,1111122 
ENP,ioos.station.NOAA.NDBC:LBSF1:1,2016-06-12T18:00:00Z,25.2140,-80.4320,1.5,27.86,1111122 
ENP,ioos.station.NOAA.NDBC:LBSF1:1,2016-06-12T19:00:00Z,25.2140,-80.4320,1.5,28.18,1111122 
ENP,ioos.station.NOAA.NDBC:LBSF1:1,2016-06-12T20:00:00Z,25.2140,-80.4320,1.5,28.46,1111122 
ENP,ioos.station.NOAA.NDBC:LBSF1:1,2016-06-12T21:00:00Z,25.2140,-80.4320,1.5,28.48,1111122 
ENP,ioos.station.NOAA.NDBC:LBSF1:1,2016-06-12T22:00:00Z,25.2140,-80.4320,1.5,28.49,1111122 
ENP,ioos.station.NOAA.NDBC:LBSF1:1,2016-06-12T23:00:00Z,25.2140,-80.4320,1.5,28.44,1111122 
ENP,ioos.station.NOAA.NDBC:LBSF1:1,2016-06-13T00:00:00Z,25.2140,-80.4320,1.5,28.3,1111122 
ENP,ioos.station.NOAA.NDBC:LBSF1:1,2016-06-13T02:00:00Z,25.2140,-80.4320,1.5,28.32,1111122 
ENP,ioos.station.NOAA.NDBC:LBSF1:1,2016-06-13T03:00:00Z,25.2140,-80.4320,1.5,28.25,1111122 
ENP,ioos.station.NOAA.NDBC:LBSF1:1,2016-06-13T05:00:00Z,25.2140,-80.4320,1.5,28.12,1111122 
ENP,ioos.station.NOAA.NDBC:LBSF1:1,2016-06-13T06:00:00Z,25.2140,-80.4320,1.5,28.05,1111122 
ENP,ioos.station.NOAA.NDBC:LBSF1:1,2016-06-13T07:00:00Z,25.2140,-80.4320,1.5,28.02,1111122 
ENP,ioos.station.NOAA.NDBC:LBSF1:1,2016-06-13T08:00:00Z,25.2140,-80.4320,1.5,28.14,1111122 
ENP,ioos.station.NOAA.NDBC:LBSF1:1,2016-06-13T10:00:00Z,25.2140,-80.4320,1.5,28.36,1111122 
ENP,ioos.station.NOAA.NDBC:LBSF1:1,2016-06-13T11:00:00Z,25.2140,-80.4320,1.5,28.3,1111122 
ENP,ioos.station.NOAA.NDBC:LBSF1:1,2016-06-13T12:00:00Z,25.2140,-80.4320,1.5,28.15,1111122 
ENP,ioos.station.NOAA.NDBC:LBSF1:1,2016-06-13T13:00:00Z,25.2140,-80.4320,1.5,28.09,1111122 
ENP,ioos.station.NOAA.NDBC:LBSF1:1,2016-06-13T14:00:00Z,25.2140,-80.4320,1.5,28.04,1111122 
ENP,ioos.station.NOAA.NDBC:LBSF1:1,2016-06-13T19:00:00Z,25.2140,-80.4320,1.5,28.13,1111122 
ENP,ioos.station.NOAA.NDBC:LBSF1:1,2016-06-13T20:00:00Z,25.2140,-80.4320,1.5,28.16,1111122 
ENP,ioos.station.NOAA.NDBC:LBSF1:1,2016-06-13T21:00:00Z,25.2140,-80.4320,1.5,28.19,1111122 
ENP,ioos.station.NOAA.NDBC:LBSF1:1,2016-06-13T22:00:00Z,25.2140,-80.4320,1.5,28.23,1111122 
ENP,ioos.station.NOAA.NDBC:LBSF1:1,2016-06-13T23:00:00Z,25.2140,-80.4320,1.5,28.23,1111122 
ENP,ioos.station.NOAA.NDBC:LBSF1:1,2016-06-14T00:00:00Z,25.2140,-80.4320,1.5,28.25,1111122 
ENP,ioos.station.NOAA.NDBC:LBSF1:1,2016-06-14T03:00:00Z,25.2140,-80.4320,1.5,28.28,1111122 
ENP,ioos.station.NOAA.NDBC:LBSF1:1,2016-06-14T06:00:00Z,25.2140,-80.4320,1.5,28.28,1111122 
ENP,ioos.station.NOAA.NDBC:LBSF1:1,2016-06-14T07:00:00Z,25.2140,-80.4320,1.5,28.27,1111122 
ENP,ioos.station.NOAA.NDBC:LBSF1:1,2016-06-14T08:00:00Z,25.2140,-80.4320,1.5,28.26,1111122 
ENP,ioos.station.NOAA.NDBC:LBSF1:1,2016-06-14T10:00:00Z,25.2140,-80.4320,1.5,28.24,1111122 
ENP,ioos.station.NOAA.NDBC:LBSF1:1,2016-06-14T11:00:00Z,25.2140,-80.4320,1.5,28.24,1111122 
ENP,ioos.station.NOAA.NDBC:LBSF1:1,2016-06-14T12:00:00Z,25.2140,-80.4320,1.5,28.23,1111122 
ENP,ioos.station.NOAA.NDBC:LBSF1:1,2016-06-14T23:00:00Z,25.2140,-80.4320,1.5,28.26,1111122 
ENP,ioos.station.NOAA.NDBC:LBSF1:1,2016-06-15T00:00:00Z,25.2140,-80.4320,1.5,28.25,1111122 
ENP,ioos.station.NOAA.NDBC:LBSF1:1,2016-06-15T03:00:00Z,25.2140,-80.4320,1.5,28.22,1111122 
ENP,ioos.station.NOAA.NDBC:LBSF1:1,2016-06-15T06:00:00Z,25.2140,-80.4320,1.5,28.11,1111122 
ENP,ioos.station.NOAA.NDBC:LBSF1:1,2016-06-15T07:00:00Z,25.2140,-80.4320,1.5,28.14,1111122 
ENP,ioos.station.NOAA.NDBC:LBSF1:1,2016-06-15T08:00:00Z,25.2140,-80.4320,1.5,28.16,1111122 
ENP,ioos.station.NOAA.NDBC:LBSF1:1,2016-06-15T10:00:00Z,25.2140,-80.4320,1.5,28.18,1111122 
ENP,ioos.station.NOAA.NDBC:LBSF1:1,2016-06-15T11:00:00Z,25.2140,-80.4320,1.5,28.19,1111122 
ENP,ioos.station.NOAA.NDBC:LBSF1:1,2016-06-15T12:00:00Z,25.2140,-80.4320,1.5,28.21,1111122 
ENP,ioos.station.NOAA.NDBC:LBSF1:1,2016-06-15T13:00:00Z,25.2140,-80.4320,1.5,28.23,1111122 
ENP,ioos.station.NOAA.NDBC:LBSF1:1,2016-06-15T14:00:00Z,25.2140,-80.4320,1.5,28.26,1111122 
ENP,ioos.station.NOAA.NDBC:LBSF1:1,2016-06-15T15:00:00Z,25.2140,-80.4320,1.5,28.26,1111122 
ENP,ioos.station.NOAA.NDBC:LBSF1:1,2016-06-15T16:00:00Z,25.2140,-80.4320,1.5,28.21,1111122 
ENP,ioos.station.NOAA.NDBC:LBSF1:1,2016-06-15T17:00:00Z,25.2140,-80.4320,1.5,28.2,1111122 
ENP,ioos.station.NOAA.NDBC:LBSF1:1,2016-06-15T18:00:00Z,25.2140,-80.4320,1.5,28.22,1111122 
ENP,ioos.station.NOAA.NDBC:LBSF1:1,2016-06-15T19:00:00Z,25.2140,-80.4320,1.5,28.23,1111122 
ENP,ioos.station.NOAA.NDBC:LBSF1:1,2016-06-15T20:00:00Z,25.2140,-80.4320,1.5,28.23,1111122 
ENP,ioos.station.NOAA.NDBC:LBSF1:1,2016-06-15T21:00:00Z,25.2140,-80.4320,1.5,28.25,1111122 
ENP,ioos.station.NOAA.NDBC:LBSF1:1,2016-06-15T22:00:00Z,25.2140,-80.4320,1.5,28.24,1111122 
ENP,ioos.station.NOAA.NDBC:LBSF1:1,2016-06-15T23:00:00Z,25.2140,-80.4320,1.5,28.24,1111122 
ENP,ioos.station.NOAA.NDBC:LBSF1:1,2016-06-16T00:00:00Z,25.2140,-80.4320,1.5,28.25,1111122 
ENP,ioos.station.NOAA.NDBC:LBSF1:1,2016-06-16T03:00:00Z,25.2140,-80.4320,1.5,28.29,1111122 
ENP,ioos.station.NOAA.NDBC:LBSF1:1,2016-06-16T06:00:00Z,25.2140,-80.4320,1.5,28.32,1111122 
ENP,ioos.station.NOAA.NDBC:LBSF1:1,2016-06-16T07:00:00Z,25.2140,-80.4320,1.5,28.34,1111122 
ENP,ioos.station.NOAA.NDBC:LBSF1:1,2016-06-16T08:00:00Z,25.2140,-80.4320,1.5,28.35,1111122 
ENP,ioos.station.NOAA.NDBC:LBSF1:1,2016-06-16T10:00:00Z,25.2140,-80.4320,1.5,28.37,1111122 
ENP,ioos.station.NOAA.NDBC:LBSF1:1,2016-06-16T11:00:00Z,25.2140,-80.4320,1.5,28.38,1111122 
ENP,ioos.station.NOAA.NDBC:LBSF1:1,2016-06-16T12:00:00Z,25.2140,-80.4320,1.5,28.38,1111122 
ENP,ioos.station.NOAA.NDBC:LBSF1:1,2016-06-16T13:00:00Z,25.2140,-80.4320,1.5,28.38,1111122 
ENP,ioos.station.NOAA.NDBC:LBSF1:1,2016-06-16T14:00:00Z,25.2140,-80.4320,1.5,28.38,1111122 
ENP,ioos.station.NOAA.NDBC:LBSF1:1,2016-06-16T15:00:00Z,25.2140,-80.4320,1.5,28.34,1111122 
ENP,ioos.station.NOAA.NDBC:LBSF1:1,2016-06-16T16:00:00Z,25.2140,-80.4320,1.5,28.33,1111122 
ENP,ioos.station.NOAA.NDBC:LBSF1:1,2016-06-16T17:00:00Z,25.2140,-80.4320,1.5,28.34,1111122 
ENP,ioos.station.NOAA.NDBC:LBSF1:1,2016-06-16T18:00:00Z,25.2140,-80.4320,1.5,28.37,1111122 
ENP,ioos.station.NOAA.NDBC:LBSF1:1,2016-06-16T19:00:00Z,25.2140,-80.4320,1.5,28.39,1111122 
ENP,ioos.station.NOAA.NDBC:LBSF1:1,2016-06-16T20:00:00Z,25.2140,-80.4320,1.5,28.39,1111122 
ENP,ioos.station.NOAA.NDBC:LBSF1:1,2016-06-16T21:00:00Z,25.2140,-80.4320,1.5,28.16,1111122 
ENP,ioos.station.NOAA.NDBC:LBSF1:1,2016-06-16T22:00:00Z,25.2140,-80.4320,1.5,28.13,1111122 
ENP,ioos.station.NOAA.NDBC:LBSF1:1,2016-06-16T23:00:00Z,25.2140,-80.4320,1.5,28.1,1111122 
ENP,ioos.station.NOAA.NDBC:LBSF1:1,2016-06-17T00:00:00Z,25.2140,-80.4320,1.5,28.09,1111122 
ENP,ioos.station.NOAA.NDBC:LBSF1:1,2016-06-17T03:00:00Z,25.2140,-80.4320,1.5,28.11,1111122 